Overview Statistics Trail Chart Weather Telemetry Raw packets
 

This is the latest recevied weather packets stored in our database for station/object W8RSN-13. If no packets are shown the sender has not sent any weather packets the latest 10 day(s).

<< 12 13 14 15 16 17 18 >>
Time Temp. Humidity Pressure Rain* Wind** Luminosity Snow
1788594870 17.78° C 68% 1016.2 hPa - - - -
1788594569 17.78° C 71% 1016.2 hPa - - - -
1788594269 17.78° C 70% 1016.2 hPa - - - -
1788593967 18.33° C 68% 1016.1 hPa - - - -
1788593666 17.78° C 69% 1016 hPa - - - -
1788593366 18.33° C 68% 1016 hPa - - - -
1788593065 18.33° C 68% 1015.9 hPa - - - -
1788592764 18.33° C 67% 1016.1 hPa - - - -
1788592463 18.33° C 67% 1015.9 hPa - - - -
1788592162 18.33° C 67% 1015.8 hPa - - - -
1788591861 18.33° C 66% 1015.9 hPa - - - -
1788591561 18.89° C 67% 1016 hPa - - - -
1788591259 18.33° C 67% 1015.9 hPa - - - -
1788590959 18.33° C 66% 1015.9 hPa - - - -
1788590658 18.89° C 66% 1015.9 hPa - - - -
1788590357 18.89° C 66% 1015.8 hPa - - - -
1788590056 18.89° C 65% 1015.8 hPa - - - -
1788589775 18.89° C 66% 1015.8 hPa - - - -
1788589474 19.44° C 65% 1015.8 hPa - - - -
1788589173 19.44° C 68% 1015.7 hPa - - - -
1788588872 19.44° C 67% 1015.6 hPa - - - -
1788588572 19.44° C 67% 1015.8 hPa - - - -
1788588270 20° C 66% 1015.5 hPa - - - -
1788587970 20° C 64% 1015.5 hPa - - - -
1788587669 20° C 59% 1015.7 hPa - - - -

* Rain since midnight (hover to see other rain measurements)
** Current wind speed in m/s (hover to see current wind gust speed)